Weather History for KHHR - March, 2012

Change the Weather History Date:

Thursday, March 29, 2012

  Actual Average Record
Temperature  
Mean Temperature 58 °F -  
Max Temperature 66 °F 65 °F 91 °F (2004)
Min Temperature 53 °F 52 °F 41 °F (1945)
Degree Days  
Heating Degree Days 6    
Growing Degree Days 8 (Base 50)    
Moisture  
Dew Point 51 °F    
Average Humidity 80    
Maximum Humidity 94    
Minimum Humidity 56    
Precipitation  
Precipitation 0.00 in - - ()
Sea Level Pressure  
Sea Level Pressure 30.04 in    
Wind  
Wind Speed 3 mph (WSW)    
Max Wind Speed 14 mph    
Max Gust Speed 16 mph    
Visibility 8 miles    
Events      
Averages and records for this station are not official NWS values.
T = Trace of Precipitation, MM = Missing Value Source: NWS Daily Summary

Daily Weather History Graph

Daily Weather History Graph

Search for Another Location

Airport or City:

Trip Planner

Search our weather history database for the weather conditions in past years. The results will help you decide how hot, cold, wet, or windy it might be!

Date:

Astronomy

Mar. 29, 2012 Rise Set
Actual Time 6:44 AM PDT 7:12 PM PDT
Civil Twilight 6:18 AM PDT 7:37 PM PDT
Nautical Twilight 5:49 AM PDT 8:06 PM PDT
Astronomical Twilight 5:19 AM PDT 8:36 PM PDT
Moon 11:10 AM PDT 12:53 AM PDT
Length of Visible Light 13h 18m
Length of Day
12h 28m
Waxing Crescent, 40% of the Moon is Illuminated
Mar 29
Waxing Crescent
Mar 30
First Quarter
Apr 6
Full
Apr 13
Last Quarter
Apr 21
New

Hourly Weather History & Observations

Time (PDT) Temp. Dew Point Humidity Pressure Visibility Wind Dir Wind Speed Gust Speed Precip Events Conditions
12:36 AM 53.6 °F 51.8 °F 94% 30.07 in 1.8 mi Calm Calm - N/A   Overcast
12:43 AM 53.6 °F 51.8 °F 94% 30.07 in 3.0 mi Calm Calm - N/A   Overcast
12:53 AM 54.0 °F 51.1 °F 90% 30.07 in 9.0 mi West 3.5 mph - N/A   Overcast
1:53 AM 54.0 °F 51.1 °F 90% 30.06 in 7.0 mi Calm Calm - N/A   Overcast
2:32 AM 53.6 °F 51.8 °F 94% 30.05 in 8.0 mi Calm Calm - N/A   Overcast
2:53 AM 54.0 °F 51.1 °F 90% 30.05 in 6.0 mi WSW 3.5 mph - N/A   Overcast
3:06 AM 53.6 °F 51.8 °F 94% 30.04 in 3.0 mi SSW 3.5 mph - N/A   Overcast
3:53 AM 54.0 °F 51.1 °F 90% 30.05 in 4.0 mi WSW 4.6 mph - N/A   Overcast
4:53 AM 53.1 °F 51.1 °F 93% 30.05 in 8.0 mi SSW 3.5 mph - N/A   Overcast
5:06 AM 53.6 °F 51.8 °F 94% 30.04 in 8.0 mi SSW 3.5 mph - N/A   Overcast
5:53 AM 54.0 °F 51.1 °F 90% 30.05 in 8.0 mi Calm Calm - N/A   Overcast
6:20 AM 53.6 °F 51.8 °F 94% 30.06 in 8.0 mi Calm Calm - N/A   Overcast
6:53 AM 55.0 °F 51.1 °F 86% 30.06 in 6.0 mi Calm Calm - N/A   Overcast
7:53 AM 55.0 °F 51.1 °F 86% 30.07 in 5.0 mi Calm Calm - N/A   Overcast
8:31 AM 55.4 °F 51.8 °F 88% 30.08 in 5.0 mi Calm Calm - N/A   Haze
8:53 AM 57.9 °F 51.1 °F 78% 30.08 in 5.0 mi Calm Calm - N/A   Haze
9:31 AM 57.2 °F 51.8 °F 82% 30.08 in 5.0 mi Variable 3.5 mph - N/A   Haze
9:53 AM 59.0 °F 50.0 °F 72% 30.09 in 6.0 mi Variable 3.5 mph - N/A   Haze
10:53 AM 62.1 °F 50.0 °F 65% 30.06 in 7.0 mi Variable 3.5 mph - N/A   Mostly Cloudy
11:09 AM 62.6 °F 50.0 °F 63% 30.06 in 7.0 mi Calm Calm - N/A   Scattered Clouds
11:53 AM 64.9 °F 48.9 °F 56% 30.04 in 8.0 mi East 4.6 mph - N/A   Mostly Cloudy
12:53 PM 63.0 °F 51.1 °F 65% 30.03 in 8.0 mi WSW 11.5 mph - N/A   Clear
1:53 PM 62.1 °F 51.1 °F 67% 30.01 in 7.0 mi West 13.8 mph - N/A   Clear
2:53 PM 61.0 °F 50.0 °F 67% 30.01 in 10.0 mi WSW 11.5 mph - N/A   Mostly Cloudy
3:19 PM 60.8 °F 50.0 °F 68% 30.00 in 10.0 mi West 10.4 mph - N/A   Partly Cloudy
3:26 PM 60.8 °F 51.8 °F 72% 30.00 in 10.0 mi WNW 8.1 mph - N/A   Mostly Cloudy
3:53 PM 61.0 °F 51.1 °F 70% 30.00 in 10.0 mi WNW 6.9 mph - N/A   Mostly Cloudy
4:00 PM 62.6 °F 51.8 °F 68% 29.99 in 10.0 mi West 6.9 mph - N/A   Clear
4:53 PM 60.1 °F 50.0 °F 69% 29.99 in 10.0 mi WSW 11.5 mph - N/A   Clear
5:22 PM 59.0 °F 51.8 °F 77% 30.00 in 10.0 mi WSW 11.5 mph - N/A   Mostly Cloudy
5:53 PM 57.9 °F 50.0 °F 75% 30.00 in 10.0 mi WSW 11.5 mph - N/A   Overcast
6:53 PM 55.9 °F 50.0 °F 80% 30.01 in 7.0 mi West 8.1 mph 16.1 mph N/A   Overcast
7:53 PM 55.9 °F 50.0 °F 80% 30.02 in 10.0 mi West 4.6 mph - N/A   Overcast
8:24 PM 55.4 °F 50.0 °F 82% 30.03 in 10.0 mi SW 6.9 mph - N/A   Overcast
8:53 PM 57.0 °F 50.0 °F 77% 30.04 in 10.0 mi WSW 4.6 mph - N/A   Overcast
9:53 PM 55.9 °F 50.0 °F 80% 30.05 in 10.0 mi Calm Calm - N/A   Overcast
10:53 PM 55.9 °F 50.0 °F 80% 30.05 in 10.0 mi Calm Calm - N/A   Overcast
11:53 PM 55.9 °F 50.0 °F 80% 30.04 in 9.0 mi Calm Calm - N/A   Overcast